COSMOS 1375 DEB

Satellite information

Favourite Embed

Satellite Type and Status

DEBRISIN ORBIT

Key statistics

Satellite COSMOS 1375 DEB at a glance.

Uptime

15896

Days in orbit

Revolutions

≈ 14.0

Per day

Orbit

LEO

Low Earth Orbit

Inclination

65.8

Latest

Satellite identification and parameters

Extended collection of information and parameters for COSMOS 1375 DEB.

Object identification

Identified? True

Debris? True

Object name: COSMOS 1375 DEB

International designator: 1982-055D

Object number (NORAD): 16202

Object ID (CCSDS): 16202

Country: COMMONWEALTH OF INDEPENDENT STATES (CIS)

Current information (Y/N): Y

RCS size: SMALL

Orbital parameters

Period: 102.953 minutes

Inclination: 65.8296 deg

SMA: 7276.467 km

Apoapsis: 950.735 km

Periapsis: 845.928 km

RAAN: 63.8771 deg

Eccentricy: 0.00720181

Argument of periapsis: 85.1417 deg

Mean anomaly: 336.1223 deg

Mean motion: 13.98691541 rev/day

Mean motion (dot): 0.0000052 rev/day2

B* drag term: 0.00041203429 1/REarth

Two-line elements (TLE)

Creation date: Dec. 12, 2025, 10:14 a.m.

Reference frame: TEME

Reference center: EARTH

Epoch: Dec. 12, 2025, 7:41 a.m. UTC

TLE line 0: 0 COSMOS 1375 DEB

TLE line 1: 1 16202U 82055D 25346.32039312 .00000520 00000-0 41203-3 0 9994

TLE line 2: 2 16202 65.8296 63.8771 0072018 85.1417 336.1223 13.98691541211703

Live tracking on map

Real-time ground track for satellite COSMOS 1375 DEB.

In-orbit conjunctions

A list of the most updated potential collisions computed for object COSMOS 1375 DEB.

Target Orbit TCA Probability of collision Miss distance Type
FENGYUN 1C DEB SSO 2025-11-20 19:11:43 0.0001714128 41.0 (m) DEBRIS
COSMOS 1980 LEO 2025-11-14 19:08:07 0.002653479 41.0 (m) PAYLOAD
FENGYUN 1C DEB SSO 2025-04-09 08:08:03 0.0001842401 223.0 (m) DEBRIS
SL-16 DEB LEO 2025-01-31 02:20:09 0.0001042621 205.0 (m) DEBRIS
SL-16 DEB LEO 2024-08-08 01:31:23 0.0002669942 28.0 (m) DEBRIS

Associated space launch

ASAT target satellite

COSMOS 1375 DEB was lifted into orbit during the mission ‘Kosmos-3M | DS-P1-M 16’, on board a Kosmos-3M space rocket.

The launch took place on June 6, 1982, 5:10 p.m. from 132/2.

For more information about the launch, click the button.

Launch to space Kosmos-3M | DS-P1-M 16
Kosmos-3M | DS-P1-M 16

Agency: N/A

Status: Launch Successful

Launch date: June 6, 1982, 5:10 p.m. UTC

Rocket: Kosmos-3M

Launch pad: 132/2

Location: Plesetsk Cosmodrome, Russian Federation

...

Latest news about this satellite

There are no fresh news available about this satellite. Check back as we update our databases every day.


Newsletter sign-up

Weekly statistics, charts and insights to help you stay on top of the space industry.